Showing default

S-NET B, 43187

Orbit data source: Space-Track

S-NET B, 43187 is a payload satellite owned by TUB (DE) in SSO that was launched on Thu, 01 Feb 2018 UTC via a SOYUZ-2-1A launch vehicle from the Vostochny Cosmodrome (VOSTO). Payload-class satellites include a variety of spacecraft equipped with specific instruments for various scientific and technological missions. These include communications satellites like Starlink; space stations such as the ISS; scientific satellites like the Hubble; Earth observation satellites from companies like Planet Labs, Umbra, and HawkEye 360; GPS; miniature CubeSats for education and research; and military/defense satellites.

Loading next visibility...
Identifier
43187, 2018-014H
Orbit
SSO
Country
Flag of DEDE / GER
Related business
Manufacturer
TUB
Mission
Operational Amateur Com/Tech
Bus & Motor
TUBIX10, Unknown motor
Mass
8 kg wet, 8 kg dry
Launch date (UTC)
2018-02-01 (8 years ago)
Launch vehicle
SOYUZ-2-1A
Launch site
Vostochny Cosmodrome (VOSTO)
Object type
Payload
Rocket body
Debris
Shape & HBR
Box, 1.0 m
Radar Cross Section
0.086 m², Medium (>0.1 m² and < 1m²)

Expand to show TLE details & history
Last TLE update: 14 hours ago

TLE from 14 hours ago
0 S-NET B
1 43187U 18014H   26127.62807884  .00004136  00000-0  21700-3 0  9995
2 43187  97.5391  32.6636 0009865 144.7936 215.3950 15.16264534452617
Epoch: 2026-05-07T15:04Z
TLE epoch observation values (Epoch: 2026-05-07T15:04:26.011Z)
Latitude
-0.00007°
Longitude
-58.91626°
Altitude
525.772 km
Speed
7.597 km/s
True Right ascension
02h 10m 39s
True Declination
0° 00' 00"
Sunlit
Object was in daylight at epoch
Visualization orbit readout
Latitude
Unknown
Longitude
Unknown
Altitude
Unknown
Speed
Unknown
Apparent Right ascension
Unknown
Apparent Declination
Unknown
Sunlit
N/A
Visualization observer readout
Local Sidereal Time
12:53:05
Azimuth
Unknown
Elevation
Unknown
Doppler factor
Unknown
Orbital elements
Apogee altitude
520.918 km
Perigee altitude
507.32 km
Semi-major axis
6,892.256 km
Eccentricity
0.00099
Inclination
97.5391°
RAAN
32.6636°
Arg. of periapsis
144.7936°
True anomaly
215.32959°
Mean anomaly
215.395°
Eccentric anomaly
215.36229°
Mean motion
3.79316 °/min
Orbital period
94.91 mins
BSTAR
0.000217
Loading maneuver chart data...
Computing Atmospheric mass density...
Loading historical data...
Loading historical data...
Loading historical data...
Loading historical data...
Loading historical data...
Loading historical data...
Loading historical data...

Documentation

Showing up to 5 results
|